date,time,SUV Intensity [MED/Hr],UV Index,Daily total [MED],Since Last [MED]
18/09/2023,00:01:24,-0.000,0.0,0.0,0.0
18/09/2023,00:02:25,-0.001,0.0,0.0,0.0
18/09/2023,00:03:24,-0.000,0.0,0.0,0.0
18/09/2023,00:04:24,-0.001,0.0,0.0,0.0
18/09/2023,00:05:25,0.000,0.0,0.0,0.0
18/09/2023,00:06:24,0.000,0.0,0.0,0.0
18/09/2023,00:07:25,-0.000,0.0,0.0,0.0
18/09/2023,00:08:24,0.000,0.0,0.0,0.0
18/09/2023,00:09:22,-0.001,0.0,0.0,0.0
18/09/2023,00:10:25,-0.001,0.0,0.0,0.0
18/09/2023,00:11:24,0.001,0.0,0.0,0.0
18/09/2023,00:12:25,-0.000,0.0,0.0,0.0
18/09/2023,00:13:24,0.000,0.0,0.0,0.0
18/09/2023,00:14:24,-0.000,0.0,0.0,0.0
18/09/2023,00:15:24,0.000,0.0,0.0,0.0
18/09/2023,00:16:25,0.001,0.0,0.0,0.0
18/09/2023,00:17:24,-0.001,0.0,0.0,0.0
18/09/2023,00:18:24,0.000,0.0,0.0,0.0
18/09/2023,00:19:25,-0.000,0.0,0.0,0.0
18/09/2023,00:20:25,0.000,0.0,0.0,0.0
18/09/2023,00:21:25,0.000,0.0,0.0,0.0
18/09/2023,00:22:25,-0.001,0.0,0.0,0.0
18/09/2023,00:23:25,0.000,0.0,0.0,0.0
18/09/2023,00:24:24,-0.001,0.0,0.0,0.0
18/09/2023,00:25:25,-0.000,0.0,0.0,0.0
18/09/2023,00:26:24,0.000,0.0,0.0,0.0
18/09/2023,00:27:25,0.000,0.0,0.0,0.0
18/09/2023,00:28:24,0.000,0.0,0.0,0.0
18/09/2023,00:29:25,0.000,0.0,0.0,0.0
18/09/2023,00:30:25,0.001,0.0,0.0,0.0
18/09/2023,00:31:25,-0.001,0.0,0.0,0.0
18/09/2023,00:32:25,0.000,0.0,0.0,0.0
18/09/2023,00:33:25,0.001,0.0,0.0,0.0
18/09/2023,00:34:24,0.000,0.0,0.0,0.0
18/09/2023,00:35:25,-0.000,0.0,0.0,0.0
18/09/2023,00:36:24,0.000,0.0,0.0,0.0
18/09/2023,00:37:24,0.001,0.0,0.0,0.0
18/09/2023,00:38:25,0.000,0.0,0.0,0.0
18/09/2023,00:39:25,0.001,0.0,0.0,0.0
18/09/2023,00:40:25,0.000,0.0,0.0,0.0
18/09/2023,00:41:25,-0.002,0.0,0.0,0.0
18/09/2023,00:42:25,0.001,0.0,0.0,0.0
18/09/2023,00:43:25,0.000,0.0,0.0,0.0
18/09/2023,00:44:25,0.000,0.0,0.0,0.0
18/09/2023,00:45:24,0.000,0.0,0.0,0.0
18/09/2023,00:46:25,0.000,0.0,0.0,0.0
18/09/2023,00:47:25,0.000,0.0,0.0,0.0
18/09/2023,00:48:25,0.001,0.0,0.0,0.0
18/09/2023,00:49:24,0.000,0.0,0.0,0.0
18/09/2023,00:50:25,0.001,0.0,0.0,0.0
18/09/2023,00:51:24,0.001,0.0,0.0,0.0
18/09/2023,00:52:24,0.001,0.0,0.0,0.0
18/09/2023,00:53:25,0.001,0.0,0.0,0.0
18/09/2023,00:54:24,0.001,0.0,0.0,0.0
18/09/2023,00:55:24,0.001,0.0,0.0,0.0
18/09/2023,00:56:22,-0.001,0.0,0.0,0.0
18/09/2023,00:57:23,0.000,0.0,0.0,0.0
18/09/2023,00:58:25,0.000,0.0,0.0,0.0
18/09/2023,00:59:25,0.001,0.0,0.0,0.0
18/09/2023,01:00:25,-0.001,0.0,0.0,0.0
18/09/2023,01:01:25,0.001,0.0,0.0,0.0
18/09/2023,01:02:24,0.001,0.0,0.0,0.0
18/09/2023,01:03:24,0.000,0.0,0.0,0.0
18/09/2023,01:04:25,0.000,0.0,0.0,0.0
18/09/2023,01:05:24,-0.000,0.0,0.0,0.0
18/09/2023,01:06:25,0.000,0.0,0.0,0.0
18/09/2023,01:07:25,0.000,0.0,0.0,0.0
18/09/2023,01:08:25,0.000,0.0,0.0,0.0
18/09/2023,01:09:25,0.000,0.0,0.0,0.0
18/09/2023,01:10:25,0.000,0.0,0.0,0.0
18/09/2023,01:11:25,0.000,0.0,0.0,0.0
18/09/2023,01:12:24,0.000,0.0,0.0,0.0
18/09/2023,01:13:24,0.001,0.0,0.0,0.0
18/09/2023,01:14:25,0.000,0.0,0.0,0.0
18/09/2023,01:15:24,0.001,0.0,0.0,0.0
18/09/2023,01:16:25,0.000,0.0,0.0,0.0
18/09/2023,01:17:25,0.001,0.0,0.0,0.0
18/09/2023,01:18:24,0.000,0.0,0.0,0.0
18/09/2023,01:19:24,0.000,0.0,0.0,0.0
18/09/2023,01:20:25,0.000,0.0,0.0,0.0
18/09/2023,01:21:25,0.000,0.0,0.0,0.0
18/09/2023,01:22:25,0.000,0.0,0.0,0.0
18/09/2023,01:23:25,0.000,0.0,0.0,0.0
18/09/2023,01:24:25,0.000,0.0,0.0,0.0
18/09/2023,01:25:25,0.000,0.0,0.0,0.0
18/09/2023,01:26:24,-0.001,0.0,0.0,0.0
18/09/2023,01:27:24,0.000,0.0,0.0,0.0
18/09/2023,01:28:24,0.000,0.0,0.0,0.0
18/09/2023,01:29:25,0.000,0.0,0.0,0.0
18/09/2023,01:30:25,-0.000,0.0,0.0,0.0
18/09/2023,01:31:25,0.001,0.0,0.0,0.0
18/09/2023,01:32:25,0.000,0.0,0.0,0.0
18/09/2023,01:33:25,0.000,0.0,0.0,0.0
18/09/2023,01:34:24,0.001,0.0,0.0,0.0
18/09/2023,01:35:25,0.000,0.0,0.0,0.0
18/09/2023,01:36:22,-0.000,0.0,0.0,0.0
18/09/2023,01:37:23,0.000,0.0,0.0,0.0
18/09/2023,01:38:25,-0.000,0.0,0.0,0.0
18/09/2023,01:39:24,0.001,0.0,0.0,0.0
18/09/2023,01:40:25,0.000,0.0,0.0,0.0
18/09/2023,01:41:25,0.000,0.0,0.0,0.0
18/09/2023,01:42:25,0.000,0.0,0.0,0.0
18/09/2023,01:43:25,0.001,0.0,0.0,0.0
18/09/2023,01:44:25,0.001,0.0,0.0,0.0
18/09/2023,01:45:25,0.000,0.0,0.0,0.0
18/09/2023,01:46:25,0.000,0.0,0.0,0.0
18/09/2023,01:47:25,0.000,0.0,0.0,0.0
18/09/2023,01:48:25,0.000,0.0,0.0,0.0
18/09/2023,01:49:25,-0.000,0.0,0.0,0.0
18/09/2023,01:50:25,0.000,0.0,0.0,0.0
18/09/2023,01:51:25,0.001,0.0,0.0,0.0
18/09/2023,01:52:25,0.000,0.0,0.0,0.0
18/09/2023,01:53:24,0.001,0.0,0.0,0.0
18/09/2023,01:54:25,0.000,0.0,0.0,0.0
18/09/2023,01:55:25,0.000,0.0,0.0,0.0
18/09/2023,01:56:25,0.001,0.0,0.0,0.0
18/09/2023,01:57:25,0.000,0.0,0.0,0.0
18/09/2023,01:58:25,-0.001,0.0,0.0,0.0
18/09/2023,01:59:25,0.001,0.0,0.0,0.0
18/09/2023,02:00:25,0.000,0.0,0.0,0.0
18/09/2023,02:01:25,0.000,0.0,0.0,0.0
18/09/2023,02:02:24,0.001,0.0,0.0,0.0
18/09/2023,02:03:25,0.000,0.0,0.0,0.0
18/09/2023,02:04:24,-0.000,0.0,0.0,0.0
18/09/2023,02:05:24,0.000,0.0,0.0,0.0
18/09/2023,02:06:25,0.000,0.0,0.0,0.0
18/09/2023,02:07:24,0.000,0.0,0.0,0.0
18/09/2023,02:08:25,0.001,0.0,0.0,0.0
18/09/2023,02:09:25,0.000,0.0,0.0,0.0
18/09/2023,02:10:24,-0.000,0.0,0.0,0.0
18/09/2023,02:11:25,0.001,0.0,0.0,0.0
18/09/2023,02:12:25,0.000,0.0,0.0,0.0
18/09/2023,02:13:25,0.000,0.0,0.0,0.0
18/09/2023,02:14:26,0.001,0.0,0.0,0.0
18/09/2023,02:15:24,-0.001,0.0,0.0,0.0
18/09/2023,02:16:24,0.001,0.0,0.0,0.0
18/09/2023,02:17:25,0.000,0.0,0.0,0.0
18/09/2023,02:18:24,0.000,0.0,0.0,0.0
18/09/2023,02:19:24,0.000,0.0,0.0,0.0
18/09/2023,02:20:25,0.000,0.0,0.0,0.0
18/09/2023,02:21:24,0.000,0.0,0.0,0.0
18/09/2023,02:22:25,0.000,0.0,0.0,0.0
18/09/2023,02:23:23,-0.000,0.0,0.0,0.0
18/09/2023,02:24:23,0.000,0.0,0.0,0.0
18/09/2023,02:25:25,0.000,0.0,0.0,0.0
18/09/2023,02:26:24,0.000,0.0,0.0,0.0
18/09/2023,02:27:25,0.000,0.0,0.0,0.0
18/09/2023,02:28:25,0.000,0.0,0.0,0.0
18/09/2023,02:29:25,0.001,0.0,0.0,0.0
18/09/2023,02:30:25,0.000,0.0,0.0,0.0
18/09/2023,02:31:25,0.000,0.0,0.0,0.0
18/09/2023,02:32:25,-0.000,0.0,0.0,0.0
18/09/2023,02:33:25,0.001,0.0,0.0,0.0
18/09/2023,02:34:25,0.000,0.0,0.0,0.0
18/09/2023,02:35:25,0.001,0.0,0.0,0.0
18/09/2023,02:36:24,0.000,0.0,0.0,0.0
18/09/2023,02:37:25,0.001,0.0,0.0,0.0
18/09/2023,02:38:25,0.001,0.0,0.0,0.0
18/09/2023,02:39:25,0.001,0.0,0.0,0.0
18/09/2023,02:40:25,0.001,0.0,0.0,0.0
18/09/2023,02:41:25,-0.000,0.0,0.0,0.0
18/09/2023,02:42:24,0.000,0.0,0.0,0.0
18/09/2023,02:43:25,0.001,0.0,0.0,0.0
18/09/2023,02:44:25,0.001,0.0,0.0,0.0
18/09/2023,02:45:25,0.000,0.0,0.0,0.0
18/09/2023,02:46:25,-0.000,0.0,0.0,0.0
18/09/2023,02:47:24,0.000,0.0,0.0,0.0
18/09/2023,02:48:24,0.000,0.0,0.0,0.0
18/09/2023,02:49:25,0.001,0.0,0.0,0.0
18/09/2023,02:50:24,0.000,0.0,0.0,0.0
18/09/2023,02:51:25,0.001,0.0,0.0,0.0
18/09/2023,02:52:24,0.000,0.0,0.0,0.0
18/09/2023,02:53:25,0.000,0.0,0.0,0.0
18/09/2023,02:54:25,0.000,0.0,0.0,0.0
18/09/2023,02:55:25,0.001,0.0,0.0,0.0
18/09/2023,02:56:25,0.000,0.0,0.0,0.0
18/09/2023,02:57:25,0.000,0.0,0.0,0.0
18/09/2023,02:58:25,0.001,0.0,0.0,0.0
18/09/2023,02:59:25,0.000,0.0,0.0,0.0
18/09/2023,03:00:25,-0.000,0.0,0.0,0.0
18/09/2023,03:01:24,0.000,0.0,0.0,0.0
18/09/2023,03:02:25,-0.000,0.0,0.0,0.0
18/09/2023,03:03:25,0.000,0.0,0.0,0.0
18/09/2023,03:04:25,0.000,0.0,0.0,0.0
18/09/2023,03:05:24,-0.000,0.0,0.0,0.0
18/09/2023,03:06:25,0.000,0.0,0.0,0.0
18/09/2023,03:07:25,0.001,0.0,0.0,0.0
18/09/2023,03:08:24,0.000,0.0,0.0,0.0
18/09/2023,03:09:25,0.000,0.0,0.0,0.0
18/09/2023,03:10:23,-0.000,0.0,0.0,0.0
18/09/2023,03:11:25,0.001,0.0,0.0,0.0
18/09/2023,03:12:25,0.000,0.0,0.0,0.0
18/09/2023,03:13:25,0.000,0.0,0.0,0.0
18/09/2023,03:14:25,0.001,0.0,0.0,0.0
18/09/2023,03:15:25,0.000,0.0,0.0,0.0
18/09/2023,03:16:25,0.000,0.0,0.0,0.0
18/09/2023,03:17:24,0.001,0.0,0.0,0.0
18/09/2023,03:18:25,0.001,0.0,0.0,0.0
18/09/2023,03:19:24,0.000,0.0,0.0,0.0
18/09/2023,03:20:25,0.001,0.0,0.0,0.0
18/09/2023,03:21:24,0.000,0.0,0.0,0.0
18/09/2023,03:22:25,0.001,0.0,0.0,0.0
18/09/2023,03:23:25,0.001,0.0,0.0,0.0
18/09/2023,03:24:25,0.001,0.0,0.0,0.0
18/09/2023,03:25:25,0.001,0.0,0.0,0.0
18/09/2023,03:26:25,0.001,0.0,0.0,0.0
18/09/2023,03:27:25,-0.000,0.0,0.0,0.0
18/09/2023,03:28:25,0.001,0.0,0.0,0.0
18/09/2023,03:29:24,0.001,0.0,0.0,0.0
18/09/2023,03:30:25,0.000,0.0,0.0,0.0
18/09/2023,03:31:25,0.001,0.0,0.0,0.0
18/09/2023,03:32:25,0.000,0.0,0.0,0.0
18/09/2023,03:33:25,0.001,0.0,0.0,0.0
18/09/2023,03:34:25,0.001,0.0,0.0,0.0
18/09/2023,03:35:25,0.001,0.0,0.0,0.0
18/09/2023,03:36:25,0.000,0.0,0.0,0.0
18/09/2023,03:37:25,0.001,0.0,0.0,0.0
18/09/2023,03:38:25,0.001,0.0,0.0,0.0
18/09/2023,03:39:25,0.001,0.0,0.0,0.0
18/09/2023,03:40:25,0.001,0.0,0.0,0.0
18/09/2023,03:41:26,0.001,0.0,0.0,0.0
18/09/2023,03:42:26,0.000,0.0,0.0,0.0
18/09/2023,03:43:25,0.001,0.0,0.0,0.0
18/09/2023,03:44:25,0.001,0.0,0.0,0.0
18/09/2023,03:45:25,0.001,0.0,0.0,0.0
18/09/2023,03:46:25,0.001,0.0,0.0,0.0
18/09/2023,03:47:25,0.001,0.0,0.0,0.0
18/09/2023,03:48:25,0.001,0.0,0.0,0.0
18/09/2023,03:49:25,0.001,0.0,0.0,0.0
18/09/2023,03:50:25,0.000,0.0,0.0,0.0
18/09/2023,03:51:25,0.001,0.0,0.0,0.0
18/09/2023,03:52:25,0.001,0.0,0.0,0.0
18/09/2023,03:53:24,0.001,0.0,0.0,0.0
18/09/2023,03:54:25,0.001,0.0,0.0,0.0
18/09/2023,03:55:25,0.001,0.0,0.0,0.0
18/09/2023,03:56:25,0.001,0.0,0.0,0.0
18/09/2023,03:57:25,0.000,0.0,0.0,0.0
18/09/2023,03:58:25,0.001,0.0,0.0,0.0
18/09/2023,03:59:25,0.001,0.0,0.0,0.0
18/09/2023,04:00:25,0.001,0.0,0.0,0.0
18/09/2023,04:01:25,0.001,0.0,0.0,0.0
18/09/2023,04:02:25,0.001,0.0,0.0,0.0
18/09/2023,04:03:25,0.001,0.0,0.0,0.0
18/09/2023,04:04:25,0.001,0.0,0.0,0.0
18/09/2023,04:05:24,0.002,0.0,0.0,0.0
18/09/2023,04:06:25,0.001,0.0,0.0,0.0
18/09/2023,04:07:25,0.001,0.0,0.0,0.0
18/09/2023,04:08:25,0.001,0.0,0.0,0.0
18/09/2023,04:09:25,0.001,0.0,0.0,0.0
18/09/2023,04:10:25,0.001,0.0,0.0,0.0
18/09/2023,04:11:25,0.001,0.0,0.0,0.0
18/09/2023,04:12:26,0.001,0.0,0.0,0.0
18/09/2023,04:13:25,0.001,0.0,0.0,0.0
18/09/2023,04:14:25,0.001,0.0,0.0,0.0
18/09/2023,04:15:25,0.001,0.0,0.0,0.0
18/09/2023,04:16:25,0.001,0.0,0.0,0.0
18/09/2023,04:17:25,0.001,0.0,0.0,0.0
18/09/2023,04:18:25,0.001,0.0,0.0,0.0
18/09/2023,04:19:25,0.001,0.0,0.0,0.0
18/09/2023,04:20:25,0.001,0.0,0.0,0.0
18/09/2023,04:21:25,0.001,0.0,0.0,0.0
18/09/2023,04:22:25,0.001,0.0,0.0,0.0
18/09/2023,04:23:25,0.001,0.0,0.0,0.0
18/09/2023,04:24:25,0.001,0.0,0.0,0.0
18/09/2023,04:25:25,0.001,0.0,0.0,0.0
18/09/2023,04:26:25,0.001,0.0,0.0,0.0
18/09/2023,04:27:25,0.001,0.0,0.0,0.0
18/09/2023,04:28:25,0.001,0.0,0.0,0.0
18/09/2023,04:29:25,0.001,0.0,0.0,0.0
18/09/2023,04:30:25,0.001,0.0,0.0,0.0
18/09/2023,04:31:25,0.001,0.0,0.0,0.0
18/09/2023,04:32:25,0.001,0.0,0.0,0.0
18/09/2023,04:33:25,0.001,0.0,0.0,0.0
18/09/2023,04:34:25,0.001,0.0,0.0,0.0
18/09/2023,04:35:25,0.001,0.0,0.0,0.0
18/09/2023,04:36:25,0.001,0.0,0.0,0.0
18/09/2023,04:37:25,0.001,0.0,0.0,0.0
18/09/2023,04:38:25,0.001,0.0,0.0,0.0
18/09/2023,04:39:25,0.001,0.0,0.0,0.0
18/09/2023,04:40:25,0.002,0.0,0.0,0.0
18/09/2023,04:41:25,0.001,0.0,0.0,0.0
18/09/2023,04:42:25,0.001,0.0,0.0,0.0
18/09/2023,04:43:25,0.001,0.0,0.0,0.0
18/09/2023,04:44:25,0.001,0.0,0.0,0.0
18/09/2023,04:45:25,0.001,0.0,0.0,0.0
18/09/2023,04:46:25,0.001,0.0,0.0,0.0
18/09/2023,04:47:25,0.001,0.0,0.0,0.0
18/09/2023,04:48:25,0.001,0.0,0.0,0.0
18/09/2023,04:49:25,0.001,0.0,0.0,0.0
18/09/2023,04:50:25,0.001,0.0,0.0,0.0
18/09/2023,04:51:25,0.001,0.0,0.0,0.0
18/09/2023,04:52:25,0.002,0.0,0.0,0.0
18/09/2023,04:53:25,0.001,0.0,0.0,0.0
18/09/2023,04:54:25,0.001,0.0,0.0,0.0
18/09/2023,04:55:25,0.001,0.0,0.0,0.0
18/09/2023,04:56:25,0.001,0.0,0.0,0.0
18/09/2023,04:57:25,0.001,0.0,0.0,0.0
18/09/2023,04:58:25,0.002,0.0,0.0,0.0
18/09/2023,04:59:25,0.001,0.0,0.0,0.0
18/09/2023,05:00:25,0.001,0.0,0.0,0.0
18/09/2023,05:01:25,0.001,0.0,0.0,0.0
18/09/2023,05:02:25,0.001,0.0,0.0,0.0
18/09/2023,05:03:25,0.001,0.0,0.0,0.0
18/09/2023,05:04:25,0.001,0.0,0.0,0.0
18/09/2023,05:05:25,0.000,0.0,0.0,0.0
18/09/2023,05:06:25,0.001,0.0,0.0,0.0
18/09/2023,05:07:25,0.001,0.0,0.0,0.0
18/09/2023,05:08:25,0.001,0.0,0.0,0.0
18/09/2023,05:09:25,0.001,0.0,0.0,0.0
18/09/2023,05:10:25,0.001,0.0,0.0,0.0
18/09/2023,05:11:25,0.002,0.0,0.0,0.0
18/09/2023,05:12:25,0.001,0.0,0.0,0.0
18/09/2023,05:13:25,0.002,0.0,0.0,0.0
18/09/2023,05:14:25,0.001,0.0,0.0,0.0
18/09/2023,05:15:25,0.001,0.0,0.0,0.0
18/09/2023,05:16:25,0.001,0.0,0.0,0.0
18/09/2023,05:17:25,0.001,0.0,0.0,0.0
18/09/2023,05:18:25,0.001,0.0,0.0,0.0
18/09/2023,05:19:25,0.001,0.0,0.0,0.0
18/09/2023,05:20:25,0.001,0.0,0.0,0.0
18/09/2023,05:21:25,0.001,0.0,0.0,0.0
18/09/2023,05:22:25,0.001,0.0,0.0,0.0
18/09/2023,05:23:25,0.001,0.0,0.0,0.0
18/09/2023,05:24:25,0.001,0.0,0.0,0.0
18/09/2023,05:25:25,0.002,0.0,0.0,0.0
18/09/2023,05:26:25,0.001,0.0,0.0,0.0
18/09/2023,05:27:25,0.001,0.0,0.0,0.0
18/09/2023,05:28:25,0.002,0.0,0.0,0.0
18/09/2023,05:29:25,0.002,0.0,0.0,0.0
18/09/2023,05:30:25,0.002,0.0,0.0,0.0
18/09/2023,05:31:25,0.002,0.0,0.0,0.0
18/09/2023,05:32:25,0.003,0.0,0.0,0.0
18/09/2023,05:33:25,0.002,0.0,0.0,0.0
18/09/2023,05:34:25,0.002,0.0,0.0,0.0
18/09/2023,05:35:25,0.002,0.0,0.0,0.0
18/09/2023,05:36:25,0.002,0.0,0.0,0.0
18/09/2023,05:37:25,0.002,0.0,0.0,0.0
18/09/2023,05:38:25,0.002,0.0,0.0,0.0
18/09/2023,05:39:25,0.003,0.0,0.0,0.0
18/09/2023,05:40:25,0.002,0.0,0.0,0.0
18/09/2023,05:41:25,0.003,0.0,0.0,0.0
18/09/2023,05:42:25,0.003,0.0,0.0,0.0
18/09/2023,05:43:25,0.003,0.0,0.0,0.0
18/09/2023,05:44:25,0.004,0.0,0.0,0.0
18/09/2023,05:45:25,0.004,0.0,0.0,0.0
18/09/2023,05:46:25,0.004,0.0,0.0,0.0
18/09/2023,05:47:25,0.004,0.0,0.0,0.0
18/09/2023,05:48:25,0.005,0.0,0.0,0.0
18/09/2023,05:49:25,0.004,0.0,0.0,0.0
18/09/2023,05:50:23,0.004,0.0,0.0,0.0
18/09/2023,05:51:23,0.005,0.0,0.0,0.0
18/09/2023,05:52:25,0.005,0.0,0.0,0.0
18/09/2023,05:53:25,0.005,0.0,0.0,0.0
18/09/2023,05:54:26,0.005,0.0,0.0,0.0
18/09/2023,05:55:24,0.006,0.0,0.0,0.0
18/09/2023,05:56:25,0.006,0.0,0.0,0.0
18/09/2023,05:57:25,0.006,0.0,0.0,0.0
18/09/2023,05:58:25,0.008,0.0,0.0,0.0
18/09/2023,05:59:25,0.007,0.0,0.0,0.0
18/09/2023,06:00:25,0.008,0.0,0.001,0.001
18/09/2023,06:01:23,0.008,0.0,0.001,0.0
18/09/2023,06:02:23,0.007,0.0,0.001,0.0
18/09/2023,06:03:26,0.008,0.0,0.001,0.0
18/09/2023,06:04:25,0.008,0.0,0.001,0.0
18/09/2023,06:05:25,0.009,0.0,0.001,0.0
18/09/2023,06:06:25,0.009,0.0,0.001,0.0
18/09/2023,06:07:25,0.009,0.0,0.002,0.001
18/09/2023,06:08:25,0.009,0.0,0.002,0.0
18/09/2023,06:09:25,0.010,0.0,0.002,0.0
18/09/2023,06:10:25,0.009,0.0,0.002,0.0
18/09/2023,06:11:25,0.009,0.0,0.002,0.0
18/09/2023,06:12:25,0.011,0.0,0.002,0.0
18/09/2023,06:13:25,0.011,0.0,0.003,0.001
18/09/2023,06:14:25,0.010,0.0,0.003,0.0
18/09/2023,06:15:26,0.013,0.0,0.003,0.0
18/09/2023,06:16:25,0.013,0.0,0.003,0.0
18/09/2023,06:17:25,0.012,0.0,0.003,0.0
18/09/2023,06:18:26,0.012,0.0,0.003,0.0
18/09/2023,06:19:25,0.013,0.0,0.004,0.001
18/09/2023,06:20:25,0.013,0.0,0.004,0.0
18/09/2023,06:21:25,0.014,0.0,0.004,0.0
18/09/2023,06:22:25,0.013,0.0,0.004,0.0
18/09/2023,06:23:25,0.014,0.0,0.005,0.001
18/09/2023,06:24:25,0.016,0.0,0.005,0.0
18/09/2023,06:25:25,0.015,0.0,0.005,0.0
18/09/2023,06:26:25,0.016,0.0,0.005,0.0
18/09/2023,06:27:25,0.017,0.0,0.006,0.001
18/09/2023,06:28:25,0.017,0.0,0.006,0.0
18/09/2023,06:29:26,0.017,0.0,0.006,0.0
18/09/2023,06:30:25,0.019,0.0,0.006,0.0
18/09/2023,06:31:25,0.018,0.0,0.007,0.001
18/09/2023,06:32:25,0.020,0.0,0.007,0.0
18/09/2023,06:33:25,0.019,0.0,0.007,0.0
18/09/2023,06:34:25,0.019,0.0,0.008,0.001
18/09/2023,06:35:25,0.022,0.0,0.008,0.0
18/09/2023,06:36:25,0.022,0.0,0.008,0.0
18/09/2023,06:37:26,0.023,0.0,0.009,0.001
18/09/2023,06:38:23,0.023,0.0,0.009,0.0
18/09/2023,06:39:23,0.023,0.0,0.01,0.001
18/09/2023,06:40:25,0.025,0.0,0.01,0.0
18/09/2023,06:41:25,0.026,0.0,0.01,0.0
18/09/2023,06:42:25,0.028,0.0,0.011,0.001
18/09/2023,06:43:25,0.028,0.0,0.011,0.0
18/09/2023,06:44:25,0.030,0.0,0.012,0.001
18/09/2023,06:45:25,0.031,0.0,0.012,0.0
18/09/2023,06:46:25,0.032,0.0,0.013,0.001
18/09/2023,06:47:25,0.033,0.0,0.013,0.0
18/09/2023,06:48:25,0.034,0.0,0.014,0.001
18/09/2023,06:49:26,0.036,0.0,0.015,0.001
18/09/2023,06:50:25,0.036,0.0,0.015,0.0
18/09/2023,06:51:25,0.037,0.0,0.016,0.001
18/09/2023,06:52:26,0.039,0.0,0.016,0.0
18/09/2023,06:53:26,0.041,0.0,0.017,0.001
18/09/2023,06:54:25,0.042,0.0,0.018,0.001
18/09/2023,06:55:25,0.043,0.0,0.018,0.0
18/09/2023,06:56:25,0.044,0.0,0.019,0.001
18/09/2023,06:57:25,0.045,0.0,0.02,0.001
18/09/2023,06:58:25,0.047,0.0,0.021,0.001
18/09/2023,06:59:26,0.048,0.0,0.022,0.001
18/09/2023,07:00:25,0.050,0.0,0.022,0.0
18/09/2023,07:01:26,0.052,0.0,0.023,0.001
18/09/2023,07:02:25,0.054,0.0,0.024,0.001
18/09/2023,07:03:25,0.055,0.0,0.025,0.001
18/09/2023,07:04:25,0.057,0.0,0.026,0.001
18/09/2023,07:05:25,0.058,0.0,0.027,0.001
18/09/2023,07:06:26,0.059,0.0,0.028,0.001
18/09/2023,07:07:26,0.061,0.0,0.029,0.001
18/09/2023,07:08:25,0.063,0.0,0.03,0.001
18/09/2023,07:09:25,0.064,0.0,0.031,0.001
18/09/2023,07:10:25,0.066,0.0,0.032,0.001
18/09/2023,07:11:25,0.069,0.0,0.033,0.001
18/09/2023,07:12:25,0.071,0.0,0.034,0.001
18/09/2023,07:13:25,0.073,0.0,0.035,0.001
18/09/2023,07:14:25,0.075,0.0,0.037,0.002
18/09/2023,07:15:25,0.077,0.0,0.038,0.001
18/09/2023,07:16:25,0.079,0.0,0.039,0.001
18/09/2023,07:17:25,0.081,0.0,0.041,0.002
18/09/2023,07:18:25,0.083,0.0,0.042,0.001
18/09/2023,07:19:25,0.085,0.0,0.043,0.001
18/09/2023,07:20:25,0.088,0.0,0.045,0.002
18/09/2023,07:21:25,0.089,0.0,0.046,0.001
18/09/2023,07:22:25,0.091,0.0,0.048,0.002
18/09/2023,07:23:25,0.093,0.0,0.049,0.001
18/09/2023,07:24:26,0.097,0.0,0.051,0.002
18/09/2023,07:25:25,0.100,0.0,0.053,0.002
18/09/2023,07:26:25,0.104,0.0,0.054,0.001
18/09/2023,07:27:26,0.108,0.0,0.056,0.002
18/09/2023,07:28:25,0.111,0.0,0.058,0.002
18/09/2023,07:29:25,0.115,0.0,0.06,0.002
18/09/2023,07:30:26,0.115,0.0,0.062,0.002
18/09/2023,07:31:25,0.119,0.0,0.064,0.002
18/09/2023,07:32:26,0.123,0.0,0.066,0.002
18/09/2023,07:33:26,0.125,0.0,0.068,0.002
18/09/2023,07:34:25,0.129,0.0,0.07,0.002
18/09/2023,07:35:25,0.132,0.0,0.072,0.002
18/09/2023,07:36:25,0.134,0.0,0.074,0.002
18/09/2023,07:37:25,0.137,0.0,0.076,0.002
18/09/2023,07:38:26,0.139,0.0,0.079,0.003
18/09/2023,07:39:25,0.140,0.0,0.081,0.002
18/09/2023,07:40:26,0.144,0.0,0.083,0.002
18/09/2023,07:41:25,0.147,0.0,0.086,0.003
18/09/2023,07:42:26,0.149,0.0,0.088,0.002
18/09/2023,07:43:25,0.152,0.0,0.091,0.003
18/09/2023,07:44:26,0.155,0.0,0.093,0.002
18/09/2023,07:45:25,0.157,0.0,0.096,0.003
18/09/2023,07:46:23,0.161,0.0,0.099,0.003
18/09/2023,07:47:23,0.163,0.0,0.101,0.002
18/09/2023,07:48:25,0.165,0.0,0.104,0.003
18/09/2023,07:49:25,0.168,0.0,0.107,0.003
18/09/2023,07:50:23,0.171,0.0,0.11,0.003
18/09/2023,07:51:23,0.173,0.0,0.112,0.002
18/09/2023,07:52:26,0.176,0.0,0.115,0.003
18/09/2023,07:53:25,0.180,0.0,0.118,0.003
18/09/2023,07:54:25,0.183,0.0,0.121,0.003
18/09/2023,07:55:25,0.186,0.0,0.125,0.004
18/09/2023,07:56:26,0.188,0.0,0.128,0.003
18/09/2023,07:57:25,0.192,0.0,0.131,0.003
18/09/2023,07:58:25,0.197,0.0,0.134,0.003
18/09/2023,07:59:26,0.199,0.0,0.137,0.003
18/09/2023,08:00:25,0.201,0.0,0.141,0.004
18/09/2023,08:01:25,0.207,0.0,0.144,0.003
18/09/2023,08:02:25,0.211,0.0,0.147,0.003
18/09/2023,08:03:25,0.214,0.0,0.151,0.004
18/09/2023,08:04:26,0.218,1.0,0.155,0.004
18/09/2023,08:05:26,0.222,1.0,0.158,0.003
18/09/2023,08:06:25,0.226,1.0,0.162,0.004
18/09/2023,08:07:25,0.230,1.0,0.166,0.004
18/09/2023,08:08:26,0.234,1.0,0.17,0.004
18/09/2023,08:09:25,0.239,1.0,0.174,0.004
18/09/2023,08:10:25,0.244,1.0,0.178,0.004
18/09/2023,08:11:25,0.247,1.0,0.182,0.004
18/09/2023,08:12:23,0.252,1.0,0.186,0.004
18/09/2023,08:13:24,0.256,1.0,0.19,0.004
18/09/2023,08:14:26,0.259,1.0,0.195,0.005
18/09/2023,08:15:25,0.263,1.0,0.199,0.004
18/09/2023,08:16:25,0.269,1.0,0.203,0.004
18/09/2023,08:17:25,0.272,1.0,0.208,0.005
18/09/2023,08:18:25,0.275,1.0,0.212,0.004
18/09/2023,08:19:26,0.280,1.0,0.217,0.005
18/09/2023,08:20:25,0.283,1.0,0.222,0.005
18/09/2023,08:21:25,0.288,1.0,0.226,0.004
18/09/2023,08:22:25,0.292,1.0,0.231,0.005
18/09/2023,08:23:25,0.296,1.0,0.236,0.005
18/09/2023,08:24:25,0.300,1.0,0.241,0.005
18/09/2023,08:25:25,0.305,1.0,0.246,0.005
18/09/2023,08:26:26,0.309,1.0,0.251,0.005
18/09/2023,08:27:25,0.313,1.0,0.257,0.006
18/09/2023,08:28:25,0.318,1.0,0.262,0.005
18/09/2023,08:29:26,0.323,1.0,0.267,0.005
18/09/2023,08:30:25,0.327,1.0,0.273,0.006
18/09/2023,08:31:25,0.333,1.0,0.278,0.005
18/09/2023,08:32:26,0.334,1.0,0.284,0.006
18/09/2023,08:33:25,0.340,1.0,0.289,0.005
18/09/2023,08:34:26,0.346,1.0,0.295,0.006
18/09/2023,08:35:25,0.351,1.0,0.301,0.006
18/09/2023,08:36:25,0.307,1.0,0.306,0.005
18/09/2023,08:37:26,0.315,1.0,0.312,0.006
18/09/2023,08:38:25,0.360,1.0,0.318,0.006
18/09/2023,08:39:26,0.312,1.0,0.324,0.006
18/09/2023,08:40:23,0.363,1.0,0.329,0.005
18/09/2023,08:41:24,0.366,1.0,0.335,0.006
18/09/2023,08:42:25,0.376,1.0,0.341,0.006
18/09/2023,08:43:25,0.365,1.0,0.347,0.006
18/09/2023,08:44:26,0.395,1.0,0.354,0.007
18/09/2023,08:45:24,0.402,1.0,0.36,0.006
18/09/2023,08:46:23,0.407,1.0,0.367,0.007
18/09/2023,08:47:26,0.410,1.0,0.374,0.007
18/09/2023,08:48:25,0.417,1.0,0.381,0.007
18/09/2023,08:49:25,0.424,1.0,0.388,0.007
18/09/2023,08:50:26,0.431,1.0,0.395,0.007
18/09/2023,08:51:26,0.392,1.0,0.402,0.007
18/09/2023,08:52:25,0.452,1.0,0.409,0.007
18/09/2023,08:53:25,0.412,1.0,0.416,0.007
18/09/2023,08:54:25,0.365,1.0,0.423,0.007
18/09/2023,08:55:25,0.332,1.0,0.428,0.005
18/09/2023,08:56:25,0.328,1.0,0.434,0.006
18/09/2023,08:57:25,0.314,1.0,0.439,0.005
18/09/2023,08:58:25,0.299,1.0,0.444,0.005
18/09/2023,08:59:25,0.281,1.0,0.449,0.005
18/09/2023,09:00:26,0.299,1.0,0.454,0.005
18/09/2023,09:01:25,0.295,1.0,0.459,0.005
18/09/2023,09:02:26,0.316,1.0,0.464,0.005
18/09/2023,09:03:25,0.369,1.0,0.47,0.006
18/09/2023,09:04:25,0.398,1.0,0.477,0.007
18/09/2023,09:05:25,0.368,1.0,0.483,0.006
18/09/2023,09:06:26,0.344,1.0,0.489,0.006
18/09/2023,09:07:25,0.336,1.0,0.495,0.006
18/09/2023,09:08:26,0.339,1.0,0.5,0.005
18/09/2023,09:09:26,0.342,1.0,0.506,0.006
18/09/2023,09:10:26,0.347,1.0,0.512,0.006
18/09/2023,09:11:25,0.356,1.0,0.518,0.006
18/09/2023,09:12:26,0.390,1.0,0.524,0.006
18/09/2023,09:13:25,0.395,1.0,0.53,0.006
18/09/2023,09:14:26,0.370,1.0,0.537,0.007
18/09/2023,09:15:26,0.386,1.0,0.543,0.006
18/09/2023,09:16:25,0.434,1.0,0.549,0.006
18/09/2023,09:17:26,0.593,1.0,0.558,0.009
18/09/2023,09:18:25,0.552,1.0,0.566,0.008
18/09/2023,09:19:26,0.482,1.0,0.574,0.008
18/09/2023,09:20:25,0.480,1.0,0.583,0.009
18/09/2023,09:21:25,0.514,1.0,0.591,0.008
18/09/2023,09:22:26,0.583,1.0,0.6,0.009
18/09/2023,09:23:25,0.533,1.0,0.609,0.009
18/09/2023,09:24:26,0.590,1.0,0.618,0.009
18/09/2023,09:25:25,0.462,1.0,0.626,0.008
18/09/2023,09:26:25,0.368,1.0,0.633,0.007
18/09/2023,09:27:25,0.282,1.0,0.638,0.005
18/09/2023,09:28:25,0.228,1.0,0.643,0.005
18/09/2023,09:29:26,0.213,0.0,0.646,0.003
18/09/2023,09:30:25,0.243,1.0,0.65,0.004
18/09/2023,09:31:26,0.257,1.0,0.654,0.004
18/09/2023,09:32:25,0.225,1.0,0.658,0.004
18/09/2023,09:33:26,0.199,0.0,0.662,0.004
18/09/2023,09:34:25,0.181,0.0,0.665,0.003
18/09/2023,09:35:25,0.184,0.0,0.668,0.003
18/09/2023,09:36:26,0.195,0.0,0.671,0.003
18/09/2023,09:37:25,0.209,0.0,0.674,0.003
18/09/2023,09:38:26,0.210,0.0,0.678,0.004
18/09/2023,09:39:25,0.207,0.0,0.681,0.003
18/09/2023,09:40:26,0.203,0.0,0.685,0.004
18/09/2023,09:41:25,0.208,0.0,0.688,0.003
18/09/2023,09:42:25,0.231,1.0,0.692,0.004
18/09/2023,09:43:25,0.251,1.0,0.696,0.004
18/09/2023,09:44:27,0.243,1.0,0.7,0.004
18/09/2023,09:45:26,0.213,0.0,0.704,0.004
18/09/2023,09:46:25,0.207,0.0,0.707,0.003
18/09/2023,09:47:26,0.244,1.0,0.711,0.004
18/09/2023,09:48:25,0.253,1.0,0.715,0.004
18/09/2023,09:49:25,0.247,1.0,0.719,0.004
18/09/2023,09:50:25,0.257,1.0,0.724,0.005
18/09/2023,09:51:25,0.269,1.0,0.728,0.004
18/09/2023,09:52:25,0.275,1.0,0.733,0.005
18/09/2023,09:53:25,0.292,1.0,0.737,0.004
18/09/2023,09:54:26,0.312,1.0,0.742,0.005
18/09/2023,09:55:25,0.313,1.0,0.748,0.006
18/09/2023,09:56:25,0.303,1.0,0.753,0.005
18/09/2023,09:57:25,0.293,1.0,0.757,0.004
18/09/2023,09:58:25,0.292,1.0,0.762,0.005
18/09/2023,09:59:26,0.287,1.0,0.767,0.005
18/09/2023,10:00:23,0.284,1.0,0.772,0.005
18/09/2023,10:01:24,0.281,1.0,0.777,0.005
18/09/2023,10:02:25,0.281,1.0,0.781,0.004
18/09/2023,10:03:26,0.282,1.0,0.786,0.005
18/09/2023,10:04:25,0.290,1.0,0.791,0.005
18/09/2023,10:05:26,0.297,1.0,0.796,0.005